PEGASUS DEB, 24129

Orbit data source: Space-Track

PEGASUS DEB, 24129 is space debris in LEO originally from a launch on Thu, 19 May 1994 UTC launched from the Air Force Western Test Range (AFWTR). Debris objects in space refer to the collection of defunct objects orbiting the Earth. Examples of debris include non-operational satellites, rocket bodies, and fragments generated from explosions, collisions, or faulty payload assembly.

Loading next visibility...
Identifier
24129, 1994-029GC
Orbit
LEO
Country
Flag of USUS
Related business
Manufacturer
Unknown
Mission
Spacecraft
Bus & Motor
Unknown
Mass
Unknown
Launch date (UTC)
1994-05-19 (32 years ago)
Launch vehicle
Unknown
Launch site
Air Force Western Test Range (AFWTR)
Object type
Payload
Rocket body
Debris
Shape & HBR
Unknown shape, 0.2 m
Radar Cross Section
Medium (>0.1 m² and <1 m²)

Expand to show TLE details & history
Last TLE update: 22 hours ago

TLE from 22 hours ago
0 PEGASUS DEB
1 24129U 94029GC  26235.36313721  .00001164  00000-0  28662-3 0  9995
2 24129  81.4733  99.1087 0536012 230.2076 257.5793 13.89944783509173
Epoch: 2026-08-23T08:42Z
TLE epoch observation values (Epoch: 2026-08-23T08:42:55.054Z)
Latitude
57.20785°
Longitude
163.33267°
Altitude
1,042.294 km
Speed
7.284 km/s
True Right ascension
17h 42m 53s
True Declination
57° 03' 26"
Sunlit
Object was in daylight at epoch
Visualization orbit readout
Latitude
Unknown
Longitude
Unknown
Altitude
Unknown
Speed
Unknown
Apparent Right ascension
Unknown
Apparent Declination
Unknown
Sunlit
N/A
Visualization observer readout
Local Sidereal Time
21:42:09
Azimuth
Unknown
Elevation
Unknown
Doppler factor
Unknown
Orbital elements
Apogee altitude
1,317.513 km
Perigee altitude
534.492 km
Semi-major axis
7,304.14 km
Eccentricity
0.0536
Inclination
81.4733°
RAAN
99.1087°
Arg. of periapsis
230.2076°
True anomaly
251.67652°
Mean anomaly
257.5793°
Eccentric anomaly
254.61819°
Mean motion
3.47688 °/min
Orbital period
103.54 mins
BSTAR
0.00028662
Loading maneuver chart data...
Computing Atmospheric mass density...

Documentation

Showing up to 5 results
|